Regional Weather Roundup
Issued by NWS

Home | Current Version | Previous Version | Graphics & Text | Print | Product List | Glossary On
Versions: 1 2 3 4 5 6 7 8 9 10 11 12 13 14 15 16 17 18 19 20 21 22 23 24 25 26 27 28 29 30 31 32 33 34 35 36 37 38 39 40 41 42 43 44 45 46 47 48 49 50
000
ASUS43 KOAX 192210
RWRNE

WEATHER ROUNDUP FOR NEBRASKA
NATIONAL WEATHER SERVICE OMAHA NE
400 PM CST SUN FEB 19 2017

NOTES: SATELLITE DATA IS BEING USED TO AUGMENT CLOUD COVER ABOVE
       12000 FEET.
       "FAIR" INDICATES FEW OR NO CLOUDS BELOW 12,000 FEET WITH NO
       SIGNIFICANT WEATHER AND/OR OBSTRUCTIONS TO VISIBILITY.

  * THESE STATIONS DO NOT REPORT WEATHER SUCH AS RAIN...SNOW OR FOG.

NEZ001>004-019>022-054>056-192300-
NEBRASKA PANHANDLE

CITY           SKY/WX    TMP DP  RH WIND       PRES   REMARKS
SCOTTSBLUFF    CLOUDY    59  33  37 E9        29.57F
ALLIANCE       CLOUDY    58  31  35 SE15      29.58S
CHADRON        CLOUDY    65  30  27 SW8       29.54R
KIMBALL        CLOUDY    59  31  33 SE8       29.59S
SIDNEY         CLOUDY    63  32  31 SE20      29.59F
$$

NEZ057>060-069>072-079>082-192300-
SOUTHWEST NEBRASKA

CITY           SKY/WX    TMP DP  RH WIND       PRES   REMARKS
NORTH PLATTE   CLOUDY    66  43  43 S9        29.64F
IMPERIAL       CLOUDY    68  40  35 S22G32    29.62F
LEXINGTON      MOSUNNY   70  43  37 S18       29.68S
MCCOOK         MOSUNNY   75  45  34 S23G35    29.64F
OGALLALA       CLOUDY    62  40  45 E9        29.62F
$$

NEZ005>010-023>029-035>040-094-192300-
NORTH CENTRAL NEBRASKA

CITY           SKY/WX    TMP DP  RH WIND       PRES   REMARKS
VALENTINE      MOSUNNY   67  35  30 S23G30    29.59R
AINSWORTH      MOSUNNY   67  42  41 S21G28    29.61S
BROKEN BOW     MOSUNNY   69  44  40 S14G24    29.67R
O`NEILL        CLOUDY    69  45  41 S15       29.65S
ORD            SUNNY     73  40  30 S17G25    29.67S
THEDFORD       CLOUDY    64  41  43 S15G26    29.65S
$$

NEZ041-046>049-061>064-073>077-083>087-192300-
SOUTH CENTRAL NEBRASKA

CITY           SKY/WX    TMP DP  RH WIND       PRES   REMARKS
GRAND ISLAND   MOSUNNY   69  49  48 S23       29.73R
AURORA         MOSUNNY   67  49  52 S18G25    29.75R
HASTINGS       MOSUNNY   69  47  45 S20G26    29.74S
HEBRON         MOSUNNY   63  51  64 S18       29.79S
HOLDREGE       CLOUDY    70  43  38 S20G28    29.69F
KEARNEY *      CLOUDY    72  43  35 S20G28    29.72R
YORK           CLOUDY    68  50  52 S20       29.76S
$$

NEZ011>018-030>034-042>045-192300-
NORTHEAST NEBRASKA

CITY           SKY/WX    TMP DP  RH WIND       PRES   REMARKS
NORFOLK        MOSUNNY   69  48  47 S24G32    29.71F
ALBION         PTSUNNY   73  45  37 S21G29    29.70F
BLAIR          MOSUNNY   69  51  53 S15       29.79F
FREMONT        MOSUNNY   70  48  45 S15G21    29.77F
TEKAMAH        MOSUNNY   68  51  54 SE18      29.78F
WAYNE          PTSUNNY   66  50  56 S16G24    29.73S
$$

NEZ050>053-065>068-078-088>093-192300-
SOUTHEAST NEBRASKA

CITY           SKY/WX    TMP DP  RH WIND       PRES   REMARKS
LINCOLN        MOSUNNY   71  50  47 S18       29.78S
OMAHA EPPLEY   CLOUDY    71  50  47 S18       29.79F
BEATRICE       SUNNY     68  54  60 S13       29.81R
FALLS CITY     SUNNY     71  53  52 S17G25    29.83F
NEBRASKA CITY  MOSUNNY   71  46  40 S16G24    29.82F
PLATTSMOUTH    MOSUNNY   72  47  41 S21G26    29.81F
$$

NEZ044-045-051>053-067-192300-
OMAHA AREA

CITY           SKY/WX    TMP DP  RH WIND       PRES   REMARKS
OMAHA EPPLEY   CLOUDY    71  50  47 S18       29.79F
BLAIR          MOSUNNY   69  51  53 S15       29.79F
FREMONT        MOSUNNY   70  48  45 S15G21    29.77F
MILLARD        PTSUNNY   73  52  48 S16G23    29.79F
OFFUTT AFB     MOSUNNY   72  51  48 S16       29.80F
PLATTSMOUTH    MOSUNNY   72  47  41 S21G26    29.81F
WAHOO          FAIR      71  46  40 S22       29.78F
$$




USA.gov is the U.S. government's official web portal to all federal, state and local government web resources and services.